Tracking 25195 objects as of 20-Jan-2022
HD Live streaming from Space Station
objects crossing your sky now

GARUDA 1

Track GARUDA 1 now!
GARUDA 1 is classified as:


NORAD ID: 26089
Int'l Code: 2000-011A
Perigee: 35,885.6 km
Apogee: 35,907.3 km
Inclination: 5.7 °
Period: 1,441.3 minutes
Semi major axis: 42267 km
RCS: 16.0243 m2 (large)
Launch date: February 12, 2000
Source: Indonesia (INDO)
Launch site: TYURATAM MISSILE AND SPACE COMPLEX (TTMTR)

L-band; mobile telephone communications.
aabbcc
Your satellite tracking list
Your tracking list is empty




NASA's NSSDC Master Catalog

Two Line Element Set (TLE):
1 26089U 00011A   22019.75208420  .00000150  00000-0  00000-0 0  9995
2 26089   5.6566  83.7043 0002560 259.2130  93.5473  0.99906501 25574
Source of the keplerian elements: AFSPC